GFSCGP_925_temp_144.txt.gz
Temp
23 22 22 24 25 25 26 25 25 25 27 26 24 23 24 25 25 24 23 23 24 21 20 18 17 17 18 19 20 19 18 18 19 20 19 19 18 18 18 18 17 17 16 16
23 22 24 26 26 26 25 25 24 25 27 25 24 23 24 25 25 25 24 23 21 19 17 17 17 16 16 16 19 18 17 18 19 19 19 19 19 18 18 17 17 16 16 16
23 25 26 26 25 25 24 24 24 24 25 25 23 23 24 25 25 22 22 22 20 17 16 17 16 15 14 15 16 17 17 18 18 17 18 18 17 17 15 15 15 16 16 16
24 26 26 25 24 25 23 25 25 25 23 21 25 20 23 23 22 21 21 21 18 16 17 17 16 15 14 14 15 16 18 18 18 18 17 17 18 15 15 15 15 15 15 14
24 25 24 24 25 25 24 25 24 24 22 21 22 20 23 24 21 20 21 20 18 16 16 17 15 14 14 14 14 15 16 17 17 17 17 17 16 14 14 14 15 15 14 14
24 26 25 24 26 25 25 23 23 22 21 19 22 22 22 23 23 22 21 20 18 16 16 16 15 14 14 14 14 14 15 15 16 17 16 16 16 15 13 13 14 13 14 12
24 24 24 25 23 24 23 22 18 19 18 19 23 22 22 23 23 22 20 19 17 16 16 15 15 15 14 13 13 13 13 13 14 16 16 15 14 14 13 13 13 12 12 12
21 21 24 24 23 22 21 21 18 18 19 18 22 18 23 23 21 21 21 19 17 15 16 15 14 13 13 13 12 13 12 12 13 14 13 13 13 13 13 12 12 12 13 12
23 22 26 25 24 23 22 20 22 21 21 19 19 22 22 21 20 19 19 18 16 15 15 15 14 13 12 12 12 12 12 12 12 12 12 12 12 12 12 12 13 13 13 13
23 22 25 23 23 23 23 23 20 19 18 19 22 22 22 20 19 19 18 18 16 16 16 14 14 13 12 12 12 12 11 11 11 11 11 11 11 11 12 11 12 12 12 12
23 22 22 21 21 22 21 21 22 21 20 21 21 23 24 21 21 19 19 18 17 15 16 14 13 12 11 11 12 11 11 11 11 11 11 10 10 11 11 10 10 10 10 11
23 22 20 20 23 23 22 21 22 20 21 21 21 20 26 22 21 21 20 19 17 16 14 14 12 12 12 12 11 11 10 11 11 11 10 10 10 10 10 10 9 10 9 9
21 21 19 20 21 22 21 22 23 23 22 21 20 22 25 22 22 21 19 19 18 15 14 13 11 11 12 12 11 11 10 10 10 10 10 10 9 9 9 9 9 9 10 10
17 20 19 19 22 21 20 21 22 22 21 21 22 22 23 22 21 20 19 18 18 15 14 13 12 12 12 12 11 10 10 10 10 10 10 9 9 9 9 9 9 9 9 8
16 18 19 20 21 23 22 21 22 22 22 22 23 23 23 22 21 20 19 19 18 16 14 13 12 12 12 11 11 10 10 10 10 9 9 8 8 9 9 8 8 8 9 9
15 17 18 19 21 22 22 23 22 22 23 23 23 23 25 23 21 20 19 19 18 17 15 13 13 12 12 12 11 10 10 10 10 9 8 8 8 9 9 9 9 9 8 8
12 15 17 16 20 21 20 23 23 22 23 23 22 24 24 22 22 21 20 19 19 17 15 13 13 13 13 12 11 10 10 10 9 9 9 9 9 8 8 8 8 8 8 8
9 10 13 16 18 17 21 23 23 23 24 23 24 24 23 23 22 22 20 20 19 18 16 14 14 14 13 12 11 11 10 10 9 9 10 10 10 10 9 9 9 9 8 8
10 9 11 13 16 18 20 21 22 22 22 23 23 23 23 23 22 21 22 21 19 18 16 15 15 15 14 13 12 12 11 11 11 11 11 11 10 10 10 9 9 9 8 8
11 10 10 11 14 15 19 21 22 24 21 23 23 23 23 20 19 19 22 21 19 19 18 17 16 16 15 14 13 13 13 12 12 12 11 11 10 10 10 10 9 9 9 8
10 10 10 11 12 16 20 22 23 21 21 23 24 24 23 21 22 20 22 21 20 19 18 17 17 15 15 15 14 14 13 13 13 12 11 11 10 10 10 9 9 9 8 8
12 11 10 11 11 13 19 21 22 22 22 22 23 23 22 22 21 21 21 20 19 18 18 17 16 15 15 14 14 13 13 13 13 12 11 11 10 9 9 9 8 8 8 7
11 12 12 14 15 18 19 19 20 19 20 22 21 23 23 20 21 19 20 20 19 18 18 17 16 14 15 14 14 13 13 13 12 11 11 10 10 9 8 8 8 7 7 7
16 15 12 15 17 18 19 19 18 19 20 20 20 21 20 20 19 20 20 19 19 18 18 17 16 15 14 14 14 14 14 13 12 11 11 10 9 9 8 8 8 7 7 7
12 15 15 15 17 18 19 20 20 18 19 19 19 20 19 19 19 19 19 19 18 18 18 17 16 15 14 14 14 14 13 12 11 11 10 10 9 9 8 8 8 7 7 7
12 12 13 15 18 18 19 20 18 18 17 18 18 19 20 18 18 18 18 18 18 18 17 17 16 15 14 14 14 14 13 12 11 10 10 10 9 9 9 8 8 8 8 7

GFSCGP_925_temp_150.txt.gz
Temp
20 18 16 17 17 19 20 20 19 19 21 21 20 20 20 20 19 18 17 16 14 14 14 15 15 16 16 16 16 17 18 18 18 19 19 18 18 18 18 18 19 17 17 16
19 17 18 19 19 19 19 18 18 19 21 21 20 19 19 20 20 19 19 14 13 13 13 14 15 15 15 15 15 16 17 18 18 18 19 19 19 19 18 18 17 18 18 16
18 19 20 19 19 19 19 18 19 20 21 20 21 19 19 20 19 17 16 15 13 13 13 13 14 15 16 15 15 15 17 17 17 17 18 19 19 18 18 17 17 17 18 17
18 21 20 19 19 20 18 20 21 21 20 18 20 17 18 20 18 16 13 13 13 13 13 13 14 14 15 15 15 15 16 17 17 17 17 18 18 17 17 18 17 16 16 16
19 20 19 19 20 20 20 21 21 22 20 18 19 18 17 18 17 15 13 12 12 12 13 13 14 14 15 15 15 14 16 17 17 17 17 18 18 17 17 16 16 16 15 15
20 21 21 20 22 21 22 21 17 16 16 16 17 17 16 17 17 16 13 13 13 12 13 13 14 14 13 14 14 14 15 16 17 16 16 16 15 15 15 14 13 14 16 15
20 20 21 22 22 22 20 18 14 16 14 15 17 16 17 19 18 18 15 13 12 12 13 13 13 13 13 13 14 13 14 15 15 16 16 15 15 15 14 13 13 14 14 14
18 16 20 21 21 20 18 17 14 15 13 14 17 16 18 18 17 18 16 14 13 12 13 13 13 13 13 13 13 13 13 14 14 15 14 15 15 14 13 12 13 13 13 13
17 17 20 21 22 22 18 17 18 16 15 14 15 18 19 16 15 15 14 13 13 12 13 13 13 13 12 12 12 12 12 13 13 13 13 13 12 12 12 12 12 12 13 12
19 18 20 20 20 20 19 18 17 14 16 16 16 17 19 17 14 14 14 13 13 12 12 12 13 13 12 12 12 12 12 12 12 12 13 12 12 12 12 11 11 12 12 12
17 18 19 19 18 18 18 18 18 16 14 15 17 17 17 18 16 15 14 13 13 13 12 13 12 12 12 11 11 11 11 11 11 11 11 11 11 11 12 12 10 10 10 10
13 12 17 19 20 19 21 20 17 15 16 14 15 17 20 18 17 16 14 13 13 13 12 12 12 11 11 11 11 11 11 11 11 10 11 11 11 11 11 11 10 11 11 11
11 12 13 17 17 18 18 19 19 16 15 16 15 17 18 16 15 15 14 13 13 13 12 12 12 11 11 11 11 11 11 10 10 10 10 10 10 10 10 10 10 10 10 11
12 11 11 13 14 13 17 18 19 18 18 18 17 19 21 17 15 14 14 13 13 12 12 12 12 11 11 11 11 10 10 10 10 10 9 9 9 9 9 9 9 9 9 9
12 11 10 10 12 13 14 17 19 18 19 18 20 19 21 19 15 15 15 13 13 12 12 12 12 11 11 10 10 10 10 10 10 9 9 9 9 9 9 9 9 9 9 9
10 11 11 10 13 13 14 16 19 19 19 19 19 18 21 21 16 15 14 14 13 12 12 13 13 12 11 10 10 10 10 9 9 9 9 9 9 9 9 9 9 9 8 9
9 9 10 10 12 11 12 14 17 18 18 19 18 20 21 19 17 17 15 14 13 13 12 12 13 12 11 10 10 9 9 9 9 9 9 9 9 9 9 8 9 8 8 8
7 8 8 7 10 10 14 14 17 18 18 18 19 20 20 20 21 18 17 15 14 13 12 13 13 13 12 11 10 10 9 9 9 9 8 9 9 9 8 8 8 8 8 8
7 7 4 5 10 13 13 16 16 17 18 19 19 20 21 19 18 17 17 16 15 13 13 13 13 13 12 11 10 10 9 9 9 8 8 8 9 8 8 8 8 8 8 7
7 8 7 4 6 10 14 15 15 16 16 19 19 19 20 17 17 19 17 17 15 14 13 13 13 12 11 11 10 9 9 9 9 9 9 9 9 9 9 8 8 7 7 7
5 7 7 8 7 9 12 13 15 14 16 20 20 19 20 18 22 21 17 17 15 14 13 12 11 10 11 10 10 10 9 9 9 9 10 10 9 9 9 8 8 7 7 7
6 4 5 8 8 8 11 14 14 14 15 15 17 18 19 18 19 17 17 17 15 13 12 12 11 11 10 10 11 10 10 10 10 10 10 9 9 9 8 8 7 7 7 6
6 7 6 7 9 10 10 11 11 12 15 14 16 17 17 17 17 16 16 16 14 13 12 12 11 11 10 10 11 10 10 11 11 10 9 9 9 9 8 8 7 6 6 6
8 8 8 9 10 11 12 12 12 14 15 15 16 16 17 17 16 15 16 15 14 13 13 13 12 11 10 10 11 11 10 11 11 9 9 9 8 8 8 8 7 7 6 5
7 8 8 8 9 9 9 11 12 14 15 15 15 15 16 17 16 15 16 15 14 14 13 13 12 11 11 11 10 10 10 10 9 9 9 8 8 8 8 8 8 7 7 8
8 8 7 8 11 11 12 13 14 14 14 15 15 15 16 15 16 14 15 15 15 14 13 13 12 12 11 11 10 10 11 10 9 7 7 8 7 7 8 7 7 7 8 7

GFSCGP_925_temp_153.txt.gz
Temp
19 18 17 16 17 18 19 18 18 18 20 20 18 19 19 19 18 17 16 16 14 14 13 15 15 16 16 16 17 17 17 18 18 19 17 17 18 19 18 19 17 16 14 15
17 17 19 18 17 17 17 17 16 18 19 18 18 19 19 18 19 18 19 15 13 12 12 13 14 15 15 15 16 16 17 17 17 18 18 18 19 19 19 19 18 17 17 15
18 18 19 19 18 17 17 17 17 18 19 19 18 17 18 18 18 19 17 15 14 13 12 12 13 14 15 15 15 15 16 16 17 17 17 18 18 18 18 19 18 17 17 16
18 19 19 18 18 18 17 18 19 19 19 17 19 17 17 19 18 17 14 12 12 12 12 12 13 13 14 14 14 15 15 16 16 16 16 17 18 18 17 19 18 18 15 14
18 18 19 19 19 18 18 19 18 19 18 18 18 17 17 16 18 15 12 12 12 11 12 12 12 14 14 15 14 15 15 16 16 16 17 16 16 16 16 17 17 16 14 15
19 21 19 19 20 19 20 19 16 15 16 16 17 17 17 17 18 15 13 12 12 11 12 12 13 13 14 15 15 15 15 15 16 16 16 16 16 16 15 14 14 14 14 15
19 19 20 21 20 20 19 18 13 16 14 15 16 15 18 18 18 16 14 13 12 11 12 12 12 12 13 14 15 14 14 14 15 15 16 16 15 14 15 14 13 13 14 14
17 17 19 20 20 19 18 18 14 15 13 13 16 15 18 19 16 15 16 14 12 11 12 12 12 12 13 13 13 13 13 13 14 15 15 14 14 14 13 13 13 13 13 13
17 16 19 20 21 21 18 16 18 14 14 13 15 17 19 15 14 14 13 13 12 12 12 12 11 12 13 13 13 13 13 13 13 13 13 13 13 13 14 13 12 12 13 13
17 17 19 20 20 19 19 18 17 14 16 16 16 17 19 19 15 13 13 13 12 12 12 11 11 12 12 13 13 12 12 12 12 12 12 12 12 12 12 12 12 12 12 12
11 15 18 20 19 18 18 17 16 16 14 15 16 17 17 19 16 14 13 13 12 12 11 11 11 12 13 13 12 11 11 12 11 11 12 12 12 12 11 11 10 10 11 11
12 11 14 18 19 20 20 19 19 18 15 13 14 16 18 17 16 15 13 13 12 12 11 11 11 11 11 11 11 11 11 11 11 11 11 11 11 11 11 11 10 10 10 10
12 11 12 16 18 15 17 17 18 16 14 14 16 18 18 16 15 14 13 12 12 11 11 10 10 11 11 11 11 11 11 11 10 10 10 10 10 10 10 10 10 10 10 10
13 11 11 13 12 11 12 12 13 15 17 18 17 18 20 18 16 13 13 12 12 12 11 11 11 12 11 11 11 11 10 10 10 10 10 9 9 9 10 10 9 10 10 10
11 10 11 11 11 11 10 11 13 13 15 18 19 18 19 20 17 14 13 12 12 12 11 11 11 11 11 11 11 10 10 10 10 10 9 9 9 9 9 9 9 9 9 10
9 9 11 11 12 12 10 11 11 12 13 15 18 18 20 19 15 13 12 12 12 12 12 11 11 11 11 11 10 10 10 10 10 10 9 9 9 9 9 8 9 9 9 9
8 8 7 6 11 12 10 12 12 13 15 15 17 20 18 19 17 16 14 13 13 13 12 12 11 11 11 11 10 10 10 9 9 9 8 8 9 8 8 9 9 9 9 9
7 7 6 5 9 8 12 15 15 14 14 15 16 19 18 18 19 19 17 15 14 13 12 12 12 11 11 11 10 10 10 9 9 9 8 8 9 8 8 9 9 8 8 9
7 6 3 4 6 8 11 12 14 15 14 15 16 17 18 18 18 17 17 16 15 14 13 13 12 11 11 10 10 10 9 9 9 8 9 8 9 9 9 8 8 8 8 8
6 6 5 1 3 7 11 12 14 15 13 16 16 16 17 17 16 18 18 16 15 14 13 12 12 11 11 10 10 9 9 9 9 9 9 9 9 9 9 9 8 8 8 7
6 7 6 6 5 6 10 12 13 13 13 12 13 15 16 16 16 16 17 16 15 13 13 12 12 11 11 10 10 9 9 9 9 9 9 9 10 10 9 8 8 7 7 6
5 5 6 7 7 7 10 10 12 10 11 12 12 13 14 14 14 15 16 15 13 12 12 12 12 11 11 10 10 10 9 9 9 9 9 9 10 9 8 8 7 6 6 6
7 5 4 6 7 9 9 9 11 11 12 12 12 13 13 14 15 15 15 14 13 12 12 12 11 10 10 10 11 10 10 9 9 9 9 10 9 8 8 7 7 6 6 6
7 7 7 7 9 9 10 10 10 11 11 12 12 13 13 13 14 14 15 13 13 12 12 11 11 10 10 10 11 11 10 10 10 10 10 9 8 8 7 7 7 6 6 5
6 6 6 6 7 8 9 10 11 11 11 11 12 12 13 13 14 14 15 13 13 12 12 11 11 10 10 10 11 11 11 11 10 10 9 8 8 8 7 7 7 7 7 8
5 7 5 7 9 8 9 10 11 11 11 12 11 12 13 13 14 15 15 13 13 12 12 11 11 10 10 10 10 10 11 11 10 8 7 7 7 7 7 7 6 7 7 7

GFSCGP_925_temp_156.txt.gz
Temp
18 17 16 16 16 17 18 17 17 17 18 19 17 17 18 18 17 17 16 15 14 13 13 14 15 15 16 16 17 17 17 18 18 18 16 15 15 18 18 18 16 16 15 14
17 16 18 17 16 17 17 17 16 16 18 17 17 18 18 18 19 19 18 17 15 13 12 12 14 14 15 15 15 16 16 17 17 17 17 17 17 17 18 18 18 17 14 14
16 18 19 18 17 17 16 16 16 17 17 17 17 16 18 18 17 17 16 16 14 13 12 11 12 14 14 14 15 15 16 16 16 17 17 17 16 17 17 17 18 14 15 16
16 18 19 17 18 17 16 17 17 17 17 16 18 17 18 18 16 16 15 13 12 11 11 11 12 13 14 14 14 15 16 16 16 16 16 16 16 16 16 18 18 16 16 16
17 17 18 19 19 17 17 18 17 18 16 16 17 16 17 16 17 17 15 13 11 11 11 11 11 13 13 14 14 15 15 16 16 16 15 15 15 15 16 17 17 17 15 13
18 19 19 19 20 19 19 18 16 14 15 15 17 17 17 18 19 17 14 12 11 11 11 11 12 13 13 13 14 14 14 15 15 15 15 15 15 15 14 14 14 13 14 14
19 18 20 20 19 18 19 18 14 16 14 15 16 15 17 18 17 17 17 12 11 11 11 12 11 11 13 13 13 13 14 13 14 14 14 14 14 14 15 15 14 13 13 13
16 16 19 19 20 19 17 18 15 16 13 14 15 14 18 18 17 15 15 12 11 11 11 11 11 12 12 13 13 13 13 13 13 13 13 13 13 13 14 13 14 13 13 13
16 16 19 20 20 20 17 16 18 14 13 13 14 16 19 17 15 14 13 12 11 11 11 11 11 12 12 13 13 13 13 13 13 13 13 12 12 12 12 12 13 13 12 12
15 15 18 20 19 19 18 18 17 14 16 16 15 16 19 20 18 14 12 12 11 11 11 11 10 11 12 12 12 13 12 12 12 12 12 12 12 12 12 12 12 12 11 12
12 13 17 18 18 17 17 17 16 17 15 16 16 17 18 20 18 16 13 12 11 11 11 11 10 11 12 12 12 12 12 11 11 12 12 12 12 12 12 11 11 11 10 11
12 10 11 16 18 19 19 18 18 17 15 13 14 16 19 17 15 15 13 12 11 11 11 10 10 11 12 13 11 11 11 11 11 11 11 11 11 11 11 10 10 10 10 10
13 11 11 14 16 15 14 13 13 13 14 15 14 17 17 16 15 14 13 12 11 11 10 10 10 11 11 11 11 11 11 11 11 10 10 10 10 10 10 10 10 10 10 10
12 11 11 11 11 10 11 11 12 12 12 14 15 17 18 19 17 14 12 11 11 11 11 11 11 10 11 11 11 11 11 11 10 10 10 10 10 10 10 10 10 10 10 10
10 9 10 11 12 9 9 10 10 11 11 11 12 13 18 18 18 15 13 11 11 11 11 12 11 11 11 11 11 10 10 10 10 10 9 9 9 9 9 9 9 9 10 10
8 9 10 9 12 12 11 10 11 11 11 11 12 13 17 18 15 15 13 11 12 12 11 12 12 11 11 11 10 10 10 10 10 9 9 9 9 9 9 9 9 9 9 9
5 7 6 6 8 9 9 12 11 12 13 12 13 15 16 17 17 17 14 12 13 13 12 11 11 11 11 11 11 10 10 10 9 9 9 9 9 9 9 9 9 9 8 8
5 6 7 4 8 5 10 10 13 14 13 13 14 14 15 16 18 17 15 14 14 13 12 11 11 11 11 11 11 10 10 10 9 9 9 9 9 9 8 9 8 8 8 8
5 6 6 4 5 7 10 12 13 12 13 13 14 15 16 16 16 17 17 15 16 14 13 12 12 11 11 11 11 10 9 9 9 9 9 8 9 8 8 9 8 8 8 8
6 8 7 2 3 7 9 11 11 12 11 11 12 13 13 13 15 15 15 15 15 13 13 12 11 11 10 10 11 10 9 9 9 9 9 9 9 9 8 9 8 7 7 7
7 5 5 3 3 5 8 9 11 10 10 11 12 12 11 12 13 14 14 15 14 12 12 12 11 10 10 10 10 10 9 9 9 9 9 9 9 9 10 8 7 7 7 7
7 6 6 7 6 6 9 10 9 9 10 11 11 11 11 11 12 12 13 13 13 11 11 12 11 10 10 10 10 10 9 10 9 9 9 9 9 9 8 8 7 7 7 6
6 5 4 5 6 8 8 10 9 9 9 10 10 11 11 11 12 12 12 13 12 11 11 11 11 10 9 10 10 9 10 9 9 9 9 9 9 9 8 7 6 6 6 6
6 5 6 6 7 7 8 8 8 9 9 10 10 10 11 11 11 12 12 12 12 11 11 11 11 10 9 10 10 10 9 9 9 8 8 8 9 7 7 7 6 6 6 5
6 5 5 6 6 7 8 8 8 9 8 9 10 10 11 11 11 12 12 12 12 12 11 11 10 10 10 10 10 10 9 10 9 8 8 8 7 7 6 7 7 7 7 7
4 5 5 6 6 8 8 8 8 8 9 9 9 10 11 11 11 12 12 12 12 11 11 11 10 10 9 10 9 9 10 10 9 7 7 7 7 6 6 6 5 6 7 7

GFSCGP_925_temp_159.txt.gz
Temp
17 18 18 19 17 18 18 17 18 18 19 19 20 19 20 20 19 19 20 21 20 20 19 17 15 15 16 17 17 18 18 18 17 17 15 15 15 15 15 17 18 17 17 16
17 17 19 18 17 18 18 18 18 18 18 18 19 19 21 21 21 22 22 22 20 19 16 15 14 14 15 15 16 16 17 17 17 17 16 16 15 15 16 17 17 16 16 16
18 18 18 18 17 17 17 18 17 18 18 18 18 19 19 20 18 19 19 19 19 19 17 14 14 14 14 14 15 16 16 16 16 16 15 15 16 16 16 16 17 16 16 15
17 18 18 17 18 18 17 18 18 18 18 18 18 19 19 21 19 18 19 17 16 15 15 14 14 14 14 14 15 15 16 16 15 16 16 16 16 15 16 17 17 17 16 14
18 17 17 18 19 18 18 18 17 18 17 17 18 18 19 18 20 21 18 16 14 13 14 14 14 14 13 14 14 15 15 15 15 15 15 15 15 16 16 16 16 15 14 14
18 18 18 19 20 19 18 18 17 16 16 17 18 19 18 19 21 20 18 15 13 13 14 14 13 13 13 13 13 14 13 14 14 15 15 15 15 15 14 14 14 14 14 14
18 18 19 19 19 18 18 18 17 17 16 18 16 16 19 19 20 18 19 16 13 13 13 12 12 13 13 13 13 13 13 13 13 14 13 14 14 13 13 13 13 14 13 13
16 17 19 19 20 18 18 18 16 17 17 18 15 17 19 19 18 16 16 15 13 13 12 12 13 13 13 12 12 12 13 13 13 13 12 13 12 12 12 12 13 12 13 13
15 16 18 19 21 20 17 17 19 16 14 16 16 18 20 17 18 16 14 13 13 13 12 12 13 13 12 12 12 12 12 13 13 13 13 13 12 12 12 13 13 12 12 12
13 13 17 19 19 19 19 18 16 16 16 17 17 17 20 20 20 17 14 13 13 13 12 13 13 12 12 12 12 12 12 12 12 12 12 12 12 13 12 12 12 12 11 12
13 12 14 16 18 17 17 17 17 17 17 18 18 19 18 20 19 16 15 13 13 13 13 12 12 12 12 12 12 12 12 11 12 12 12 11 11 11 12 12 11 10 11 11
12 11 11 14 16 16 18 18 18 15 16 15 18 19 19 18 16 15 14 13 13 13 12 12 12 11 11 12 12 12 12 11 11 11 11 11 11 11 11 11 10 10 10 10
10 10 9 12 15 14 12 11 13 15 15 17 17 18 17 17 16 14 14 13 13 13 12 12 11 11 12 12 11 11 11 11 11 11 11 10 10 10 10 10 10 10 10 10
11 8 9 10 10 9 10 9 9 10 14 16 16 18 19 16 16 16 14 13 13 13 12 12 11 11 12 12 11 11 11 10 10 10 10 10 10 10 10 10 10 10 10 10
9 8 9 10 12 9 9 10 8 9 11 11 13 12 14 15 16 17 17 14 13 12 12 12 12 11 11 11 11 11 10 10 10 10 9 9 9 9 10 9 10 10 10 10
6 7 9 9 11 12 11 10 10 9 11 12 12 12 14 15 16 16 16 14 13 13 13 13 13 12 11 11 12 11 10 10 10 10 9 9 9 9 9 9 9 9 9 10
6 7 7 8 9 9 9 11 12 12 13 14 13 14 16 16 16 17 18 14 14 14 13 13 13 13 11 11 12 11 10 10 9 9 9 9 9 8 8 8 8 8 9 9
6 6 7 7 8 7 10 10 12 12 11 13 14 14 15 15 15 16 16 16 15 15 14 13 13 12 11 11 11 11 10 10 9 9 9 9 8 8 8 9 8 8 8 8
6 6 7 7 7 8 11 11 12 12 13 13 13 14 13 13 14 15 14 14 15 15 15 14 13 12 11 11 11 10 9 9 9 8 9 9 9 8 9 8 8 8 8 8
6 6 6 4 6 8 10 10 10 11 11 12 12 12 12 12 15 15 14 14 14 14 14 13 12 11 11 11 11 10 9 9 9 9 9 9 9 8 8 9 8 8 8 8
6 6 6 6 6 7 9 9 10 10 11 11 12 11 11 11 12 13 13 13 13 13 12 12 11 11 11 10 10 10 10 10 9 9 9 9 9 8 9 8 8 7 7 7
8 7 6 6 6 7 9 9 10 10 9 11 11 11 11 11 11 12 12 12 12 12 12 11 11 11 10 10 11 10 10 10 9 9 9 8 8 8 8 8 7 7 7 6
7 7 6 7 8 9 8 9 9 9 10 10 10 10 10 10 11 11 11 12 12 12 12 11 11 10 10 10 11 10 10 9 9 9 9 8 8 8 7 7 6 6 6 6
6 6 8 7 8 7 8 8 8 8 9 9 9 10 10 10 11 11 11 12 12 12 11 11 10 10 10 10 10 11 10 9 9 8 8 8 8 7 7 7 7 7 6 5
7 6 7 6 7 7 8 8 8 9 9 8 9 9 10 11 10 11 11 12 12 12 11 11 10 10 10 10 10 10 10 9 8 8 7 6 7 7 6 7 7 7 7 8
6 6 7 9 7 9 10 10 9 8 9 9 8 9 9 10 10 11 11 11 12 12 11 11 10 10 10 10 10 9 10 9 8 7 6 6 7 6 6 6 5 6 7 7

GFSCGP_925_temp_162.txt.gz
Temp
22 22 21 23 23 24 24 23 23 24 24 22 24 25 25 26 26 26 27 28 28 28 29 27 23 21 20 20 20 20 20 20 19 19 19 17 16 16 16 15 16 16 15 15
21 21 23 24 22 21 22 22 23 24 24 23 23 23 25 26 26 27 27 28 29 29 28 25 22 21 20 20 20 19 19 19 18 18 18 18 18 16 15 15 16 16 15 15
22 24 23 22 21 21 22 21 23 23 23 23 23 23 26 25 26 26 26 26 27 27 27 24 22 20 19 20 19 19 19 18 18 16 16 16 16 16 15 15 16 16 15 14
21 23 21 20 21 22 21 23 22 21 21 22 22 23 25 24 25 26 26 25 25 24 24 24 21 20 19 19 17 18 17 17 17 16 16 17 18 18 18 17 16 16 16 15
22 20 21 21 22 22 22 21 21 21 21 22 22 21 25 22 24 27 25 22 21 21 22 21 20 19 18 17 17 17 16 16 16 16 16 17 17 17 17 16 15 15 14 13
21 23 22 22 23 22 21 20 20 20 21 20 23 22 25 23 24 26 25 22 20 19 20 20 19 18 17 16 16 15 15 15 15 15 15 16 16 16 16 16 14 14 14 14
22 22 22 22 21 21 20 20 19 19 19 21 21 21 24 24 22 25 25 23 19 19 19 19 18 18 17 16 14 14 14 14 15 15 15 15 15 14 15 14 13 13 13 13
20 21 22 22 22 22 20 21 18 17 20 21 19 20 23 22 21 21 21 20 18 18 18 16 18 17 17 16 14 14 14 13 13 13 12 13 13 13 13 13 13 13 13 13
17 20 23 22 22 23 21 19 22 19 18 18 21 22 23 21 22 20 20 18 17 17 15 15 18 17 17 16 13 14 14 13 12 12 13 12 12 13 13 13 13 13 13 13
15 14 19 20 21 21 22 22 18 17 17 17 21 22 22 21 22 22 19 18 17 14 14 17 17 17 16 16 14 13 13 13 12 12 12 13 12 13 13 12 12 12 12 12
11 12 16 17 19 20 20 19 20 20 19 20 21 21 22 22 20 18 18 17 17 15 15 17 17 16 16 15 15 14 13 13 12 12 12 12 12 11 11 11 11 11 11 11
12 9 12 15 18 18 16 16 20 19 19 20 21 22 21 20 19 17 17 16 17 16 15 17 17 16 15 15 15 14 13 13 12 11 11 11 11 11 11 10 10 10 10 11
12 12 11 15 18 15 11 10 11 11 16 19 19 21 20 20 19 17 17 17 17 17 15 17 16 16 16 16 15 15 13 12 11 11 12 11 10 10 10 10 10 10 10 10
10 10 10 11 14 10 10 9 8 9 13 17 20 19 18 18 18 19 18 17 18 18 16 17 14 15 16 16 16 15 13 12 11 11 11 10 10 9 10 10 10 10 10 10
9 9 11 12 12 12 11 12 11 9 10 10 11 14 18 17 17 18 18 18 17 17 17 17 14 14 16 16 16 15 13 12 11 11 10 9 9 9 9 10 10 9 10 10
9 8 10 10 12 12 12 13 13 12 9 10 11 11 15 17 18 18 19 18 18 18 17 17 15 14 16 16 15 14 12 11 10 11 10 8 9 9 9 9 9 9 9 9
8 8 9 9 12 12 11 13 13 14 14 11 12 14 15 17 17 17 18 18 18 18 18 17 16 15 14 16 16 14 12 11 11 10 10 9 9 9 9 8 9 9 9 9
7 7 8 8 10 8 13 15 13 13 15 11 11 15 16 16 16 16 17 17 17 17 18 18 18 16 13 15 15 14 12 11 10 10 9 9 9 8 8 8 8 8 9 9
8 8 6 7 9 11 13 13 13 12 14 15 13 14 17 15 15 16 16 16 16 16 17 17 18 17 14 15 15 14 12 11 10 10 9 9 8 8 7 7 7 8 8 8
8 8 6 8 7 8 14 15 13 13 12 14 15 15 16 15 16 18 15 15 16 16 16 16 17 17 14 14 15 13 13 11 11 10 9 8 8 8 8 8 7 7 7 7
7 6 6 8 7 10 14 13 13 12 13 13 14 14 14 14 14 14 14 15 15 15 15 15 15 16 14 14 14 14 13 12 11 9 8 8 8 8 9 8 7 7 7 8
9 7 7 7 8 9 14 12 12 14 13 13 13 13 13 13 13 13 14 14 15 15 15 14 14 14 13 13 14 14 13 12 10 9 8 8 8 8 9 9 8 8 8 8
9 10 9 7 10 13 12 13 14 14 14 13 13 13 13 13 13 13 14 14 15 15 15 14 13 13 12 13 14 14 14 11 9 8 8 7 7 9 8 8 8 8 8 8
11 11 9 9 11 12 12 13 13 13 13 13 13 13 13 13 13 13 14 14 15 15 15 14 13 12 11 12 14 14 13 11 9 8 7 7 7 9 8 8 8 8 8 8
9 9 10 11 12 12 13 12 13 13 13 12 13 13 13 13 13 13 13 14 14 14 14 14 13 12 11 12 13 13 12 10 9 8 7 7 7 9 8 8 8 8 8 8
10 10 10 11 12 12 13 15 14 13 13 14 12 13 13 12 12 13 12 13 13 14 14 14 13 12 11 11 12 12 11 10 9 7 7 7 8 9 8 7 6 6 7 7

GFSCGP_925_temp_168.txt.gz
Temp
23 21 21 22 23 24 24 24 23 24 26 25 24 24 25 25 25 25 24 25 25 26 27 30 29 29 28 27 26 24 24 23 23 22 20 18 19 18 18 18 18 17 18 19
22 21 23 24 24 24 24 23 23 24 25 25 24 24 24 25 25 25 26 25 25 26 26 26 28 28 27 26 25 24 23 23 22 22 21 20 20 19 19 18 18 17 17 18
22 24 25 24 23 22 23 22 22 22 23 24 23 22 23 25 26 26 26 26 26 26 26 26 26 26 26 25 24 23 23 22 22 21 21 21 20 19 19 18 17 17 17 17
22 24 24 24 23 23 21 24 23 23 22 20 23 20 22 25 26 26 26 25 26 24 26 26 26 23 24 25 24 23 22 22 21 20 20 19 19 18 18 18 18 17 17 17
21 23 22 22 23 24 23 23 23 22 21 21 21 20 22 24 24 25 27 22 23 22 21 22 23 23 24 24 23 22 21 21 20 19 19 19 19 19 19 19 18 17 17 17
22 24 23 23 24 24 23 23 22 21 20 18 20 21 21 23 25 25 26 23 22 22 21 22 23 23 21 21 21 20 20 19 19 18 18 18 18 19 19 18 18 17 17 16
21 22 23 23 22 23 22 20 17 18 17 18 22 21 23 24 25 25 23 22 21 21 22 21 19 19 19 19 19 19 19 18 17 17 17 17 17 17 18 18 17 16 14 14
18 18 22 18 19 18 19 21 18 16 17 18 22 19 21 24 23 23 24 23 20 20 21 19 18 18 19 17 18 17 17 17 17 16 16 16 16 16 16 16 15 15 14 14
14 17 19 18 19 18 18 18 20 18 19 18 19 21 23 23 22 21 22 20 20 19 18 18 18 18 16 16 17 16 16 16 15 15 14 13 14 15 15 16 15 15 15 15
13 11 16 16 16 18 18 19 17 17 15 15 18 19 20 22 23 20 20 19 18 16 17 18 18 18 15 15 15 15 15 15 14 14 14 13 15 15 15 15 15 15 15 14
12 12 12 13 14 15 15 15 16 13 15 15 16 18 23 21 21 18 18 18 14 14 15 16 18 18 15 14 14 14 15 15 14 14 14 14 14 14 14 14 13 13 13 12
12 11 10 11 14 15 14 14 12 12 13 12 13 16 14 11 18 17 17 17 15 14 15 17 17 15 15 14 14 14 15 15 14 14 13 13 13 12 12 11 11 11 12 12
11 10 7 9 12 14 13 11 10 9 10 11 12 15 14 10 11 17 17 17 16 16 16 17 17 17 15 15 15 15 15 14 14 13 12 12 12 11 11 11 10 10 10 10
11 9 8 7 8 9 9 10 10 10 8 9 10 11 11 8 9 10 16 17 17 17 17 17 17 17 16 16 15 15 15 14 14 13 13 12 12 11 11 10 11 10 11 10
10 8 9 10 11 11 10 11 12 10 11 9 11 10 10 9 9 11 15 16 17 17 17 17 16 17 18 17 15 15 15 14 14 13 13 11 11 11 10 10 10 10 10 10
10 8 9 8 10 10 10 11 12 12 12 11 11 11 12 9 9 11 15 15 16 18 17 16 16 16 16 18 15 15 14 14 13 12 11 11 11 10 10 9 10 10 10 10
8 7 7 6 9 9 8 10 11 12 13 13 11 13 11 9 9 11 15 14 14 16 17 16 15 15 16 17 15 14 14 13 13 12 10 10 10 9 9 9 10 10 10 10
7 7 7 6 7 5 9 12 12 12 13 13 14 14 15 12 10 12 15 15 14 14 16 16 16 15 16 16 15 14 14 13 13 11 11 11 10 9 9 9 9 9 10 9
9 8 6 5 6 8 10 11 12 11 11 14 14 15 13 12 12 14 15 15 15 14 14 15 16 16 16 16 16 15 14 13 13 11 11 11 10 9 8 8 9 8 9 9
7 9 7 6 6 6 11 12 12 12 11 14 15 15 12 12 11 13 15 15 15 15 15 15 15 16 17 16 16 14 13 13 12 11 10 10 9 8 8 8 8 8 8 8
7 6 6 6 6 8 11 12 12 9 10 14 15 14 14 12 13 13 15 15 15 15 15 15 15 16 16 16 15 14 13 12 12 10 9 9 8 8 8 8 8 8 8 7
8 6 6 7 6 8 10 10 7 9 11 12 13 13 13 12 13 13 14 14 15 15 15 15 15 16 15 16 15 14 13 12 11 10 9 8 8 8 8 8 9 9 9 8
7 7 7 6 8 11 12 10 10 11 12 12 13 13 13 13 13 13 13 14 14 15 15 15 14 14 15 16 15 14 13 11 10 9 9 8 8 8 8 9 9 10 9 8
10 11 8 8 10 11 11 11 12 12 12 13 13 14 14 14 14 14 13 13 13 14 14 15 13 13 13 14 14 13 11 10 9 9 9 9 10 9 9 9 10 10 9 9
8 9 9 9 10 8 11 11 13 12 12 13 14 14 13 13 13 13 12 12 13 13 14 14 14 12 12 13 14 13 11 10 9 9 9 10 11 10 10 10 10 10 10 9
8 8 9 8 11 8 8 10 12 11 12 13 13 13 13 13 13 13 12 12 13 13 14 14 14 12 12 12 13 12 11 10 9 8 9 10 10 10 10 10 9 10 9 9

GFSCGP_925_temp_171.txt.gz
Temp
20 17 16 18 18 19 20 20 20 21 22 22 21 20 21 22 22 22 21 21 21 21 23 26 27 28 29 27 25 24 24 23 23 22 21 20 20 19 19 19 19 19 18 18
18 17 18 20 20 20 20 19 19 20 23 22 21 21 21 21 22 24 23 22 23 23 23 23 25 26 27 26 25 24 24 23 22 22 21 20 20 19 19 19 19 18 18 18
17 19 21 21 20 20 20 19 19 20 21 21 20 20 20 21 22 23 24 24 24 22 23 23 22 23 24 24 24 24 23 23 22 22 21 20 19 19 18 18 17 17 17 17
18 20 21 21 20 21 19 21 21 21 19 18 21 18 20 20 21 23 23 23 23 22 22 22 23 20 22 22 23 23 23 22 22 21 20 19 18 17 18 18 18 17 17 17
18 19 20 20 21 22 20 21 20 21 19 18 19 17 20 21 21 22 23 21 20 19 20 20 19 21 21 22 22 22 22 22 21 21 20 20 19 19 19 18 18 17 17 17
18 20 20 20 21 21 21 21 19 19 17 16 19 17 19 18 21 24 21 20 20 20 19 19 18 18 19 21 21 21 21 20 20 20 19 18 18 18 18 18 17 17 17 17
16 19 20 18 18 18 17 18 15 15 15 17 18 17 19 20 20 23 21 19 19 19 18 17 16 17 17 18 19 19 19 18 18 18 18 18 18 18 18 17 17 16 15 15
12 14 15 16 15 14 15 17 16 15 13 15 18 16 19 21 21 22 21 18 18 19 17 16 16 15 16 16 18 18 17 17 17 17 16 16 17 17 17 16 16 15 15 15
12 12 15 14 15 15 15 14 15 15 14 14 15 17 19 16 16 19 18 17 17 17 16 15 16 15 15 16 17 16 16 15 15 15 15 15 15 15 15 15 15 15 15 15
11 9 13 13 14 15 13 14 13 13 13 14 15 17 15 11 10 11 14 15 15 15 15 15 15 14 15 15 16 17 15 15 15 15 14 14 15 16 16 16 15 14 14 14
11 10 10 11 11 11 11 11 12 12 12 12 14 14 13 11 11 11 9 13 13 14 14 15 14 14 14 15 15 15 15 15 14 14 13 14 14 14 15 14 14 14 14 13
11 8 7 8 10 11 12 11 10 8 10 10 11 13 11 10 11 11 11 11 13 13 14 14 14 14 14 14 14 14 14 14 14 14 13 13 13 13 13 13 12 12 12 12
10 6 3 7 8 10 8 9 10 9 8 10 10 12 13 12 11 11 11 12 12 14 15 15 14 14 14 14 14 14 14 13 13 13 13 12 12 12 11 11 11 10 11 11
10 6 4 4 6 6 6 8 9 9 8 8 8 8 11 11 11 10 10 11 11 13 15 15 14 15 14 14 14 14 13 13 13 12 12 12 11 11 10 10 10 10 10 11
8 5 6 7 8 8 8 8 9 7 8 8 9 9 9 11 10 10 9 10 11 12 14 15 15 15 15 14 14 14 14 13 13 12 12 11 11 11 10 10 10 10 11 11
7 5 7 5 7 8 7 8 9 9 9 9 10 10 11 12 9 10 10 10 12 12 13 14 14 14 15 14 14 14 14 13 13 12 12 11 10 10 10 10 10 10 10 10
5 5 3 4 6 6 5 8 8 9 10 10 8 10 12 11 10 11 10 10 12 12 12 13 13 14 15 15 14 13 13 13 12 12 11 10 10 9 9 10 10 10 10 10
4 4 5 3 5 3 7 9 10 9 10 11 11 11 12 13 12 10 10 10 12 11 11 12 12 13 15 15 14 13 13 13 12 11 10 10 9 9 9 9 9 9 9 9
6 4 4 4 3 6 7 9 10 10 10 11 10 12 12 12 9 10 12 11 12 11 10 10 13 15 14 14 14 13 12 12 11 11 10 10 9 9 9 9 9 9 9 9
5 7 5 4 5 5 9 10 11 10 8 8 10 11 10 10 9 11 12 14 14 12 11 11 13 14 15 14 14 13 12 12 11 11 10 10 9 9 9 8 8 8 8 8
3 1 2 4 5 6 8 9 10 7 7 8 10 10 10 10 11 12 13 14 14 14 14 13 13 14 15 14 14 13 12 11 11 10 10 9 9 9 8 8 8 8 7 7
5 2 0 1 3 6 9 10 9 10 9 10 9 10 10 11 11 12 12 12 13 12 14 14 13 13 14 14 13 12 12 11 11 10 9 9 9 8 8 8 7 7 7 7
4 4 3 4 6 8 8 9 10 9 10 10 10 10 11 12 12 13 12 12 12 13 13 14 13 12 13 14 13 12 11 10 10 9 8 8 8 8 8 8 8 7 7 7
5 7 6 6 7 8 8 9 9 10 11 9 11 12 11 12 12 11 11 11 11 13 13 13 13 12 12 13 13 12 11 10 9 8 8 7 8 8 8 8 8 8 7 6
4 6 6 5 6 7 8 9 9 10 10 10 10 12 13 13 12 12 11 11 11 12 13 13 13 12 12 13 12 11 10 10 9 8 8 8 8 8 8 9 9 8 8 9
4 5 4 4 7 6 7 9 9 10 10 10 10 10 11 12 11 13 11 11 11 12 12 12 12 12 12 12 10 10 10 10 9 9 9 9 9 9 9 9 9 9 9 9

GFSCGP_925_temp_177.txt.gz
Temp
18 16 15 16 16 17 18 17 16 17 18 18 18 18 18 19 18 18 20 19 19 17 19 22 24 24 24 23 23 21 20 21 22 22 20 20 19 20 20 20 20 20 20 19
17 15 16 17 17 17 16 16 15 16 18 18 17 19 18 18 18 20 20 20 19 18 18 19 22 24 23 25 23 21 20 21 22 21 20 19 19 19 20 19 19 19 18 18
15 17 18 17 17 16 16 15 16 16 18 18 17 18 18 18 18 18 18 18 19 18 19 20 20 21 22 22 21 20 20 21 20 21 20 18 18 18 17 17 18 17 18 18
16 17 18 17 17 17 16 17 18 18 17 15 18 16 18 17 18 19 18 17 16 16 17 17 18 20 20 22 22 20 20 20 20 21 19 19 18 17 18 18 18 18 17 17
17 18 18 17 18 18 17 18 17 18 17 16 17 16 16 17 18 17 16 14 16 16 16 16 16 17 21 21 21 20 19 18 19 20 20 20 19 18 19 18 18 17 17 17
16 16 16 15 17 16 17 18 16 17 16 14 16 16 17 15 12 12 12 12 14 15 15 15 15 16 17 19 19 19 18 18 18 19 19 20 19 19 18 17 17 17 17 16
14 14 14 14 15 15 15 16 12 13 13 15 15 16 17 12 12 11 12 11 12 12 13 13 13 13 15 16 17 18 16 14 17 19 19 19 19 19 19 18 17 17 16 16
13 13 11 12 13 12 13 13 12 12 13 13 15 14 15 12 12 12 13 12 12 12 12 13 13 12 14 15 16 15 15 16 17 17 18 18 18 18 18 17 17 17 16 16
11 12 11 12 12 12 12 10 12 10 10 10 11 14 11 12 11 11 12 12 12 12 12 13 12 13 13 13 13 14 14 15 16 17 17 17 18 17 17 16 16 16 15 16
10 11 10 11 12 12 11 12 11 10 8 10 11 13 14 11 11 11 12 11 11 12 13 13 13 12 14 14 14 15 14 15 15 15 16 16 16 17 16 16 15 15 15 15
10 10 10 10 10 9 9 8 9 9 8 8 10 12 12 10 11 11 12 12 12 11 12 13 12 13 13 14 14 14 14 14 14 14 14 15 14 15 15 15 14 14 14 14
9 6 7 8 8 9 9 8 7 6 5 4 5 8 11 10 11 12 12 12 11 11 11 13 12 12 13 13 13 13 14 14 14 14 14 13 14 14 14 14 14 14 13 13
9 6 7 7 8 8 7 7 7 5 4 4 3 7 10 9 10 11 11 11 11 11 11 12 12 12 12 13 13 13 13 13 13 13 13 12 13 13 13 13 13 13 12 12
10 6 6 7 7 5 3 5 5 4 1 2 5 6 7 8 9 9 10 10 10 10 11 12 11 11 11 12 13 13 12 13 12 12 12 12 12 13 12 12 12 11 11 11
7 6 6 6 7 6 6 6 5 2 4 2 5 5 6 8 8 9 10 9 10 11 11 11 11 11 12 11 12 12 12 12 12 12 12 11 11 11 12 11 11 10 10 10
5 5 5 5 6 6 6 6 6 6 6 5 6 6 8 8 8 8 8 9 10 11 11 11 11 11 11 9 12 12 12 12 12 12 11 11 11 11 10 10 10 10 10 10
4 4 2 2 4 4 4 6 6 6 6 7 6 8 8 7 8 8 8 8 10 10 11 10 11 10 10 10 11 12 11 12 11 11 11 11 11 10 10 10 10 10 10 10
3 3 2 1 3 2 6 7 7 7 8 8 6 7 7 7 7 8 8 8 9 9 10 10 10 10 10 10 9 12 12 11 11 10 10 10 10 10 10 9 9 10 10 10
3 3 -2 -0 1 4 7 8 8 7 7 8 6 5 6 7 8 7 8 9 9 9 9 9 9 9 10 10 9 11 11 11 10 10 10 10 10 9 9 9 9 9 9 9
3 1 -0 0 -0 4 7 7 8 8 6 9 8 7 8 7 6 8 8 10 10 10 10 9 9 9 10 10 10 11 11 10 10 10 10 10 9 9 9 9 9 9 9 8
-0 -1 -2 -0 2 4 5 7 8 5 6 8 9 8 8 7 8 7 8 9 11 10 10 10 9 9 9 10 11 11 11 11 10 9 10 10 9 9 9 9 8 8 8 8
3 0 -1 -1 1 4 7 8 7 6 7 8 8 8 8 9 9 10 8 10 10 10 11 9 8 8 8 10 11 11 11 10 10 10 9 9 8 8 8 8 8 8 7 7
3 2 1 1 3 6 7 7 7 6 6 8 9 8 7 8 9 10 10 10 10 10 10 9 8 8 9 11 11 11 9 9 9 9 8 8 8 8 8 8 7 7 7 7
4 3 4 4 5 5 6 6 6 7 7 8 8 7 7 8 9 10 10 9 9 10 10 9 7 7 9 10 10 10 9 9 9 8 8 8 8 7 7 7 7 7 7 7
3 3 2 2 3 4 6 6 6 7 7 7 7 7 7 7 9 10 9 9 9 10 11 10 9 7 7 10 9 9 9 9 8 8 8 8 7 7 7 7 7 7 8 10
1 2 2 2 3 4 5 6 6 6 6 7 7 7 7 8 10 10 9 9 9 9 10 10 10 8 9 10 9 8 8 9 8 8 8 8 7 7 7 6 6 7 8 9

GFSCGP_925_temp_180.txt.gz
Temp
17 16 14 16 15 16 17 16 15 16 17 16 16 17 17 17 17 17 18 18 17 16 18 20 22 23 23 23 22 21 21 21 20 19 21 21 21 21 20 20 20 20 19 19
16 14 16 16 16 16 16 15 14 15 17 16 16 17 18 17 17 18 17 16 16 17 17 18 19 21 22 23 23 21 20 19 20 19 21 21 21 21 20 20 20 19 19 19
15 17 17 17 17 16 15 15 15 16 17 17 16 16 18 19 18 17 15 13 13 13 15 16 17 18 20 21 22 22 20 20 19 19 19 20 19 18 17 18 18 18 18 18
15 16 18 16 16 16 15 16 16 16 16 15 17 15 17 18 17 15 13 12 12 12 13 14 15 15 15 19 20 21 20 19 18 19 19 21 18 17 18 18 18 18 18 18
16 17 17 17 17 17 16 18 17 17 15 15 16 14 14 16 17 12 11 12 12 12 12 13 14 14 15 17 19 20 19 18 18 18 19 19 18 18 18 18 17 17 17 17
15 15 15 14 15 16 15 16 15 15 14 14 15 15 14 15 11 10 11 12 12 12 12 13 13 13 13 16 17 18 19 18 17 17 18 18 18 17 17 17 16 16 16 16
15 14 12 13 14 15 14 15 12 13 13 14 15 14 15 11 11 11 11 11 12 12 12 13 13 13 13 13 15 17 17 16 16 17 17 18 18 18 18 17 17 16 16 16
13 13 11 11 12 12 12 12 12 13 11 12 13 13 13 11 11 11 12 12 12 12 12 12 13 13 13 12 14 15 15 15 15 15 17 17 17 18 19 19 18 17 17 17
10 12 11 12 12 12 12 11 11 11 10 9 11 13 11 11 10 11 11 12 11 12 12 12 13 12 13 12 12 13 13 14 14 15 16 17 17 16 17 17 17 17 16 16
10 11 10 11 12 11 11 11 11 10 9 10 10 11 12 9 9 10 10 11 11 11 11 12 12 12 12 12 12 13 13 13 13 14 15 16 16 16 16 16 16 15 15 15
9 10 10 10 9 8 9 9 8 9 8 8 10 11 10 8 9 9 9 10 11 11 11 11 12 12 11 12 13 13 13 14 14 14 14 15 15 15 16 15 15 15 15 15
9 8 9 9 8 8 9 8 7 6 7 6 4 7 10 7 8 9 9 10 11 12 12 11 12 11 11 11 12 12 13 14 13 14 15 14 14 14 14 14 14 15 15 14
8 7 7 7 8 8 7 7 7 5 4 3 4 7 9 9 9 9 9 9 9 10 11 11 11 11 11 11 11 12 12 13 13 13 13 13 13 13 13 13 13 13 13 13
10 6 7 8 7 4 4 5 5 4 1 1 5 6 7 7 7 7 8 8 7 9 10 11 10 11 11 11 11 12 12 12 12 12 12 12 12 12 12 12 12 12 12 12
8 6 6 7 7 6 6 6 5 2 2 2 5 4 5 6 7 7 8 8 8 8 9 10 10 10 10 11 11 11 12 12 12 12 11 11 12 11 11 12 12 11 11 11
5 5 5 5 5 5 6 6 6 6 5 3 4 5 7 7 6 6 7 7 7 8 9 10 10 10 10 11 10 10 12 12 12 12 11 11 11 11 11 11 11 10 10 10
5 4 3 3 3 4 5 6 6 6 5 5 5 7 6 6 6 6 7 7 7 8 9 10 10 10 10 10 10 10 11 11 12 11 11 11 11 11 11 10 10 10 10 10
3 4 2 1 3 3 7 6 7 6 7 6 6 6 6 6 6 7 7 7 7 7 8 9 9 9 9 9 9 9 11 11 11 11 11 11 10 11 10 10 10 10 10 10
4 4 -1 0 1 4 6 7 7 7 6 7 8 7 7 8 7 7 8 7 7 7 8 9 10 10 9 9 9 9 11 10 10 10 10 10 10 10 9 9 9 9 9 9
3 1 -0 -4 -1 3 6 7 8 7 5 8 8 7 7 7 7 7 7 8 8 9 9 9 9 9 9 9 10 9 11 10 10 10 10 10 10 10 9 9 9 9 8 8
-0 -3 -3 -1 -2 2 5 6 7 5 4 7 7 7 7 7 7 7 8 9 10 9 10 9 9 9 8 8 9 10 10 10 10 10 10 10 10 9 9 9 8 8 8 7
1 -2 -4 -3 -2 2 6 7 6 6 6 7 7 7 7 8 8 9 9 9 9 9 10 8 8 8 7 8 9 10 10 10 10 9 9 9 9 9 8 8 8 7 7 7
3 2 0 0 2 4 6 7 7 6 5 6 7 7 7 7 8 9 9 8 8 9 10 8 7 7 7 8 9 10 10 9 9 9 8 9 8 8 8 8 7 7 6 6
4 2 4 4 5 3 4 4 5 6 6 6 6 6 6 6 7 7 8 7 8 9 9 7 6 6 7 7 10 10 9 9 9 8 8 8 7 7 7 7 7 7 7 6
2 2 2 2 2 3 4 4 5 7 6 6 6 6 6 6 6 8 8 7 8 9 9 6 6 5 6 8 9 9 8 9 8 8 8 7 7 7 7 6 7 7 7 9
0 2 2 2 3 4 4 6 6 6 5 5 6 6 6 7 6 7 7 8 8 8 8 7 6 6 7 8 8 8 8 9 8 8 8 7 7 6 6 6 5 7 8 9